Time,TemperatureF,DewpointF,PressureIn,WindDirection,WindDirectionDegrees,WindSpeedMPH,WindSpeedGustMPH,Humidity,HourlyPrecipIn,Conditions,Clouds,dailyrainin,SolarRadiationWatts/m^2,SoftwareType,DateUTC
2013-05-16 00:22:00,60.0,11.0,-100.00,East,90,5.0,8.0,14,0.00,,,0.00,0.000000,,2013-05-16 06:22:00,
2013-05-16 00:33:00,60.0,11.0,-100.00,East,90,5.0,8.0,14,0.00,,,0.00,0.000000,,2013-05-16 06:33:00,
2013-05-16 00:43:00,60.0,11.0,-100.00,East,90,5.0,8.0,14,0.00,,,0.00,0.000000,,2013-05-16 06:43:00,
2013-05-16 00:52:00,60.0,11.0,-100.00,East,90,5.0,8.0,14,0.00,,,0.00,0.000000,,2013-05-16 06:52:00,
2013-05-16 01:24:00,59.0,13.0,-100.00,East,86,5.0,9.0,16,0.00,,,0.00,0.000000,,2013-05-16 07:24:00,
2013-05-16 01:34:00,59.0,13.0,-100.00,East,86,5.0,9.0,16,0.00,,,0.00,0.000000,,2013-05-16 07:34:00,
2013-05-16 01:44:00,59.0,13.0,-100.00,East,86,5.0,9.0,16,0.00,,,0.00,0.000000,,2013-05-16 07:44:00,
2013-05-16 01:54:00,59.0,13.0,-100.00,East,86,5.0,9.0,16,0.00,,,0.00,0.000000,,2013-05-16 07:54:00,
2013-05-16 02:23:00,57.0,16.0,-100.00,East,85,5.0,11.0,20,0.00,,,0.00,0.000000,,2013-05-16 08:23:00,
2013-05-16 02:34:00,57.0,16.0,-100.00,East,85,5.0,11.0,20,0.00,,,0.00,0.000000,,2013-05-16 08:34:00,
2013-05-16 02:44:00,57.0,16.0,-100.00,East,85,5.0,11.0,20,0.00,,,0.00,0.000000,,2013-05-16 08:44:00,
2013-05-16 02:54:00,57.0,16.0,-100.00,East,85,5.0,11.0,20,0.00,,,0.00,0.000000,,2013-05-16 08:54:00,
2013-05-16 03:24:00,55.0,16.0,-100.00,East,84,5.0,11.0,21,0.00,,,0.00,0.000000,,2013-05-16 09:24:00,
2013-05-16 03:35:00,55.0,16.0,-100.00,East,84,5.0,11.0,21,0.00,,,0.00,0.000000,,2013-05-16 09:35:00,
2013-05-16 03:45:00,55.0,16.0,-100.00,East,84,5.0,11.0,21,0.00,,,0.00,0.000000,,2013-05-16 09:45:00,
2013-05-16 03:55:00,55.0,16.0,-100.00,East,84,5.0,11.0,21,0.00,,,0.00,0.000000,,2013-05-16 09:55:00,
2013-05-16 04:24:00,55.0,19.0,-100.00,East,83,7.0,11.0,24,0.00,,,0.00,0.000000,,2013-05-16 10:24:00,
2013-05-16 04:35:00,55.0,19.0,-100.00,East,83,7.0,11.0,24,0.00,,,0.00,0.000000,,2013-05-16 10:35:00,
2013-05-16 04:45:00,55.0,19.0,-100.00,East,83,7.0,11.0,24,0.00,,,0.00,0.000000,,2013-05-16 10:45:00,
2013-05-16 04:56:00,55.0,19.0,-100.00,East,83,7.0,11.0,24,0.00,,,0.00,0.000000,,2013-05-16 10:56:00,
2013-05-16 05:25:00,51.0,18.0,-100.00,East,93,5.0,11.0,27,0.00,,,0.00,0.000000,,2013-05-16 11:25:00,
2013-05-16 05:46:00,51.0,18.0,-100.00,East,93,5.0,11.0,27,0.00,,,0.00,0.000000,,2013-05-16 11:46:00,
2013-05-16 05:56:00,51.0,18.0,-100.00,East,93,5.0,11.0,27,0.00,,,0.00,0.000000,,2013-05-16 11:56:00,
2013-05-16 06:23:00,51.0,20.0,-100.00,ESE,116,4.0,11.0,29,0.00,,,0.00,0.000000,,2013-05-16 12:23:00,
2013-05-16 06:34:00,51.0,20.0,-100.00,ESE,116,4.0,11.0,29,0.00,,,0.00,0.000000,,2013-05-16 12:34:00,
2013-05-16 06:45:00,51.0,20.0,-100.00,ESE,116,4.0,11.0,29,0.00,,,0.00,0.000000,,2013-05-16 12:45:00,
2013-05-16 06:53:00,51.0,20.0,-100.00,ESE,116,4.0,11.0,29,0.00,,,0.00,0.000000,,2013-05-16 12:53:00,
2013-05-16 07:26:00,53.0,22.0,-100.00,East,84,7.0,11.0,30,0.00,,,0.00,57.000000,,2013-05-16 13:26:00,
2013-05-16 07:35:00,53.0,22.0,-100.00,East,84,7.0,11.0,30,0.00,,,0.00,57.000000,,2013-05-16 13:35:00,
2013-05-16 07:43:00,53.0,22.0,-100.00,East,84,7.0,11.0,30,0.00,,,0.00,57.000000,,2013-05-16 13:43:00,
2013-05-16 07:54:00,53.0,22.0,-100.00,East,84,7.0,11.0,30,0.00,,,0.00,57.000000,,2013-05-16 13:54:00,
2013-05-16 08:23:00,60.0,24.0,-100.00,ESE,107,5.0,12.0,25,0.00,,,0.00,303.000000,,2013-05-16 14:23:00,
2013-05-16 08:37:00,60.0,24.0,-100.00,ESE,107,5.0,12.0,25,0.00,,,0.00,303.000000,,2013-05-16 14:37:00,
2013-05-16 08:47:00,60.0,24.0,-100.00,ESE,107,5.0,12.0,25,0.00,,,0.00,303.000000,,2013-05-16 14:47:00,
2013-05-16 08:55:00,60.0,24.0,-100.00,ESE,107,5.0,12.0,25,0.00,,,0.00,303.000000,,2013-05-16 14:55:00,
2013-05-16 08:58:00,70.0,27.0,-100.00,East,99,2.0,6.0,20,0.00,,,0.00,567.000000,,2013-05-16 14:58:00,
2013-05-16 09:28:00,70.0,27.0,-100.00,East,99,2.0,6.0,20,0.00,,,0.00,567.000000,,2013-05-16 15:28:00,
2013-05-16 09:40:00,70.0,27.0,-100.00,East,99,2.0,6.0,20,0.00,,,0.00,567.000000,,2013-05-16 15:40:00,
2013-05-16 09:50:00,70.0,27.0,-100.00,East,99,2.0,6.0,20,0.00,,,0.00,567.000000,,2013-05-16 15:50:00,
2013-05-16 09:58:00,76.0,22.0,-100.00,NW,325,2.0,6.0,13,0.00,,,0.00,807.000000,,2013-05-16 15:58:00,
2013-05-16 10:30:00,76.0,22.0,-100.00,NW,325,2.0,6.0,13,0.00,,,0.00,807.000000,,2013-05-16 16:30:00,
2013-05-16 10:40:00,76.0,-99.9,-100.00,NW,325,2.0,6.0,13,0.00,,,0.00,807.000000,,2013-05-16 16:40:00,
2013-05-16 10:50:00,76.0,22.0,-100.00,NW,325,2.0,6.0,13,0.00,,,0.00,807.000000,,2013-05-16 16:50:00,
2013-05-16 10:58:00,77.0,-99.9,-100.00,South,179,4.0,12.0,12,0.00,,,0.00,971.000000,,2013-05-16 16:58:00,
2013-05-16 11:30:00,77.0,20.0,-100.00,South,179,4.0,12.0,12,0.00,,,0.00,971.000000,,2013-05-16 17:30:00,
2013-05-16 11:40:00,77.0,20.0,-100.00,South,179,4.0,12.0,12,0.00,,,0.00,971.000000,,2013-05-16 17:40:00,
2013-05-16 11:50:00,77.0,-99.9,-100.00,South,179,4.0,12.0,12,0.00,,,0.00,971.000000,,2013-05-16 17:50:00,
2013-05-16 11:58:00,-999.0,-99.9,-100.00,SSW,212,7.0,21.0,12,0.00,,,0.00,1167.000000,,2013-05-16 17:58:00,
2013-05-16 12:30:00,-999.0,-99.9,-100.00,SSW,212,7.0,21.0,12,0.00,,,0.00,1167.000000,,2013-05-16 18:30:00,
2013-05-16 12:40:00,-999.0,-99.9,-100.00,SSW,212,7.0,21.0,12,0.00,,,0.00,1167.000000,,2013-05-16 18:40:00,
2013-05-16 12:50:00,-999.0,-99.9,-100.00,SSW,212,7.0,21.0,12,0.00,,,0.00,1167.000000,,2013-05-16 18:50:00,
2013-05-16 12:58:00,81.0,-99.9,-100.00,SSW,206,8.0,21.0,10,0.00,,,0.00,1283.000000,,2013-05-16 18:58:00,
2013-05-16 13:30:00,81.0,19.0,-100.00,SSW,206,8.0,21.0,10,0.00,,,0.00,1283.000000,,2013-05-16 19:30:00,
2013-05-16 13:40:00,81.0,-99.9,-100.00,SSW,206,8.0,21.0,10,0.00,,,0.00,1283.000000,,2013-05-16 19:40:00,
2013-05-16 13:50:00,-999.0,-99.9,-100.00,SSW,206,8.0,21.0,10,0.00,,,0.00,1283.000000,,2013-05-16 19:50:00,
2013-05-16 13:58:00,82.0,20.0,-100.00,SW,230,12.0,23.0,10,0.00,,,0.00,1120.000000,,2013-05-16 19:58:00,
2013-05-16 14:30:00,82.0,20.0,-100.00,SW,230,12.0,23.0,10,0.00,,,0.00,1120.000000,,2013-05-16 20:30:00,
2013-05-16 14:40:00,-999.0,-99.9,-100.00,SW,230,12.0,23.0,10,0.00,,,0.00,1120.000000,,2013-05-16 20:40:00,
2013-05-16 14:50:00,82.0,20.0,-100.00,SW,230,12.0,23.0,10,0.00,,,0.00,1120.000000,,2013-05-16 20:50:00,
2013-05-16 14:58:00,-999.0,-99.9,-100.00,WSW,238,14.0,27.0,9,0.00,,,0.00,1225.000000,,2013-05-16 20:58:00,
2013-05-16 15:29:00,84.0,19.0,-100.00,WSW,238,14.0,27.0,9,0.00,,,0.00,1225.000000,,2013-05-16 21:29:00,
2013-05-16 15:38:00,84.0,19.0,-100.00,WSW,238,14.0,27.0,9,0.00,,,0.00,1225.000000,,2013-05-16 21:38:00,
2013-05-16 15:50:00,84.0,-99.9,-100.00,WSW,238,14.0,27.0,9,0.00,,,0.00,1225.000000,,2013-05-16 21:50:00,
2013-05-16 15:58:00,83.0,18.0,-100.00,SW,232,13.0,25.0,9,0.00,,,0.00,1192.000000,,2013-05-16 21:58:00,
2013-05-16 16:30:00,83.0,18.0,-100.00,SW,232,13.0,25.0,9,0.00,,,0.00,1192.000000,,2013-05-16 22:30:00,
2013-05-16 16:40:00,83.0,18.0,-100.00,SW,232,13.0,25.0,9,0.00,,,0.00,1192.000000,,2013-05-16 22:40:00,
2013-05-16 16:50:00,83.0,18.0,-100.00,SW,232,13.0,25.0,9,0.00,,,0.00,1192.000000,,2013-05-16 22:50:00,
2013-05-16 17:24:00,84.0,16.0,-100.00,SW,219,11.0,26.0,8,0.00,,,0.00,907.000000,,2013-05-16 23:24:00,
2013-05-16 17:34:00,84.0,16.0,-100.00,SW,219,11.0,26.0,8,0.00,,,0.00,907.000000,,2013-05-16 23:34:00,
2013-05-16 17:45:00,84.0,16.0,-100.00,SW,219,11.0,26.0,8,0.00,,,0.00,907.000000,,2013-05-16 23:45:00,
2013-05-16 17:54:00,84.0,16.0,-100.00,SW,219,11.0,26.0,8,0.00,,,0.00,907.000000,,2013-05-16 23:54:00,
2013-05-16 18:22:00,78.0,12.0,-100.00,SW,218,14.0,23.0,8,0.00,,,0.00,412.000000,,2013-05-17 00:22:00,
2013-05-16 18:33:00,78.0,12.0,-100.00,SW,218,14.0,23.0,8,0.00,,,0.00,412.000000,,2013-05-17 00:33:00,
2013-05-16 18:43:00,78.0,12.0,-100.00,SW,218,14.0,23.0,8,0.00,,,0.00,412.000000,,2013-05-17 00:43:00,
2013-05-16 18:52:00,78.0,12.0,-100.00,SW,218,14.0,23.0,8,0.00,,,0.00,412.000000,,2013-05-17 00:52:00,
2013-05-16 19:23:00,77.0,14.0,-100.00,SW,224,10.0,19.0,9,0.00,,,0.00,155.000000,,2013-05-17 01:23:00,
2013-05-16 19:32:00,77.0,14.0,-100.00,SW,224,10.0,19.0,9,0.00,,,0.00,155.000000,,2013-05-17 01:32:00,
2013-05-16 19:43:00,77.0,14.0,-100.00,SW,224,10.0,19.0,9,0.00,,,0.00,155.000000,,2013-05-17 01:43:00,
2013-05-16 19:52:00,77.0,14.0,-100.00,SW,224,10.0,19.0,9,0.00,,,0.00,155.000000,,2013-05-17 01:52:00,
2013-05-16 20:21:00,74.0,14.0,-100.00,SW,220,7.0,15.0,10,0.00,,,0.00,47.000000,,2013-05-17 02:21:00,
2013-05-16 20:32:00,74.0,14.0,-100.00,SW,220,7.0,15.0,10,0.00,,,0.00,47.000000,,2013-05-17 02:32:00,
2013-05-16 20:42:00,74.0,14.0,-100.00,SW,220,7.0,15.0,10,0.00,,,0.00,47.000000,,2013-05-17 02:42:00,
2013-05-16 20:52:00,74.0,14.0,-100.00,SW,220,7.0,15.0,10,0.00,,,0.00,47.000000,,2013-05-17 02:52:00,
2013-05-16 21:22:00,71.0,14.0,-100.00,SSW,194,5.0,11.0,11,0.00,,,0.00,2.000000,,2013-05-17 03:22:00,
2013-05-16 21:34:00,71.0,14.0,-100.00,SSW,194,5.0,11.0,11,0.00,,,0.00,2.000000,,2013-05-17 03:34:00,
2013-05-16 21:43:00,71.0,14.0,-100.00,SSW,194,5.0,11.0,11,0.00,,,0.00,2.000000,,2013-05-17 03:43:00,
2013-05-16 21:53:00,71.0,14.0,-100.00,SSW,194,5.0,11.0,11,0.00,,,0.00,2.000000,,2013-05-17 03:53:00,
2013-05-16 22:23:00,69.0,16.0,-100.00,SSW,195,3.0,9.0,13,0.00,,,0.00,0.000000,,2013-05-17 04:23:00,
2013-05-16 22:33:00,69.0,16.0,-100.00,SSW,195,3.0,9.0,13,0.00,,,0.00,0.000000,,2013-05-17 04:33:00,
2013-05-16 22:43:00,69.0,16.0,-100.00,SSW,195,3.0,9.0,13,0.00,,,0.00,0.000000,,2013-05-17 04:43:00,
2013-05-16 22:53:00,69.0,16.0,-100.00,SSW,195,3.0,9.0,13,0.00,,,0.00,0.000000,,2013-05-17 04:53:00,
2013-05-16 23:22:00,63.0,18.0,-100.00,East,96,5.0,8.0,17,0.00,,,0.00,0.000000,,2013-05-17 05:22:00,
2013-05-16 23:32:00,63.0,18.0,-100.00,East,96,5.0,8.0,17,0.00,,,0.00,0.000000,,2013-05-17 05:32:00,
2013-05-16 23:42:00,63.0,18.0,-100.00,East,96,5.0,8.0,17,0.00,,,0.00,0.000000,,2013-05-17 05:42:00,
2013-05-16 23:52:00,63.0,18.0,-100.00,East,96,5.0,8.0,17,0.00,,,0.00,0.000000,,2013-05-17 05:52:00,